sat.trackr.live / text

‹ back to catalog

STARLINK-37170

NORAD 68614 · 2026-073N

PAYLOAD ACTIVE UNKNOWN

§ Identity

Operator
Country
US
Launch date
2026-04-07
Launch site
AFWTR
Launch vehicle
Mass (kg)
RCS (m²)

Purposes: comms

External: N2YO · Heavens-Above · Gunter

§ Orbital elements

Epoch: 2026-05-25T04:00:03.998880Z

Period
92.31 min
Inclination
97.2853°
Eccentricity
0.0001440
Mean motion
15.59990429 rev/d
Perigee alt
386.7 km
Apogee alt
388.7 km
Semi-major
6,765.8 km
B*
-2.7425e-2
RAAN
344.7010°
Arg perigee
87.6223°
Mean anomaly
319.1800°
Rev number
599

§ Raw data

STARLINK-371701 68614U 26073N   26145.16671295 -.01949677  00000+0 -27425-1 0  99932 68614  97.2853 344.7010 0001440  87.6223 319.1800 15.59990429  5995

JSON: /api/v1/satellites/68614 · /tle

For live sub-satellite position, see the globe view (requires WebGL).

§ Visibility from observer

Set your observer location to see the next 7 days of passes ≥ 10°. The values pass through the URL so the page stays shareable.

No JS? Fill the form by hand. The geolocation button needs JavaScript.